Location: Unspecified
(41.5000°N, 0.0000°E)
Time: 05:52:58
(UTC+00:00)

A-11 Canister half - Pass Details

Date: 03 July 2019
Orbit: 1526 x 1683 km, 47.3° (Epoch: 17 July)

Event Time Altitude Azimuth Distance (km) Brightness Sun altitude
Exits shadow 02:55:49 - 258° (WSW) 4,011 10.7 -14.3°
Reaches altitude 10° 02:56:29 10° 258° (WSW) 3,801 10.6 -14.2°
Maximum altitude 03:06:06 72° 343° (NNW) 1,625 9.2 -13.0°
Drops below altitude 10° 03:15:28 10° 68° (ENE) 3,707 12.2 -11.8°
Sets 03:18:31 0° 70° (ENE) 4,683 12.8 -11.4°
